Погода Правая Хетта

Погода Правая Хетта : погода сейчас, прогноз погоды и архив. Всё, что Вы хотите узнать о погоде Правая Хетта!

Хотите узнать прогноз погоды Правая Хетта? Тогда Вам сюда: Погода Правая Хетта

Поиск расширенной информации на нашем сайте:

Другие новости

Новости СМИ2

Главная страница сайта

Новости сайта

03.07.2017

Напоминаем, что на нашем специализированном сайте Метеоцентр.Азия вы можете получить высокодетализированные автоматические прогнозы погоды по пунктам России, СНГ и мира в авиационном формате (включающие направление и скорость ветра, видимость, явления погоды, количество и форму облачности, нижнюю и верхнюю границу облачности).


Погода Правая Хетта - сегодня

Время (UTC), дата Ветер
(°,м/с) 
Видим.   Явления Облачность Т
(°С)
Тd
(°С)
f(%) Тe
(°С)
Pmin
(гПа)
dP
(гПа)
Po
(мм)
O2
(г/м3)
Тmin Tmax R s Состояние
почвы
00 22.02.18 070 (В) 20000 м    ясно 
-38.4 -38.4 100 -43  1028.8  -0.9  766  361           
03 22.02.18 060 (СВ) 20000 м    6/0 верхняя 
[Ci fib]
-35.3 -38.9 70 -42  1028.1  -0.7  765  356  -35.5      67  равномерный
сухой снег
100% 
06 22.02.18 070 (В) 20000 м    4/0 верхняя 
[Ci fib]
-30.6 -34 72 -34  1027.4  -0.5  765  349           
09 22.02.18 070 (В) 20000 м    4/0 верхняя 
[Ci fib]
-29.1 -32.6 72 -35  1026.6  -0.7  764  347           
12 22.02.18 060 (СВ) 20000 м    8/0 верхняя 
[Ci fib]
-29.1 -32.6 72 -33  1026.6  -0.5  764  346           
18 22.02.18 040 (СВ) 10 км  слаб. снег  10/0 средняя 
[Ac As]
-34.2 -37.7 70 -35  1025.3  763  354           
21 22.02.18 030 (СВ) 10 км  слаб. снег  10/0 средняя 
[Ac As]
-33.8 -37.3 71 -38  1024.6  -0.7  763  353           
00 23.02.18 040 (СВ) 10 км  слаб. снег  10/4 300 м средняя 
[Sc|As op]
-30.8 -33.8 75 -32  1023.9  -0.5  762  348           
03 23.02.18 020 (С) 2000 м  дымка{снег}  10/10 200 м 
[St]
-29.5 -32.4 76 -30  1023.1  -0.8  762  346  -34.5    0.0  67  равномерный
сухой снег
100% 
06 23.02.18 020 (С) 20000 м  {снег}  4/4 300 м 
[St]
-27.3 -30.2 76 -28  1022.2  -0.8  761  343           
09 23.02.18 340 (С) 20000 м    10/10 300 м 
[St]
-26.2 -28.7 79 -27  1021.5  -0.6  761  341           
12 23.02.18 330 (СЗ) 10 км  слаб. снег  10/10 300 м 
[Sc]
-24 -26.3 81 -24  1020.6  -0.8  760  338           
15 23.02.18 330 (СЗ) 10 км  слаб. снег  10/4 600 м средняя 
[Sc|Ac As]
-22.1 -24.2 83 -25  1018.8  -1.7  759  334    -22.1  0.4     
18 23.02.18 340 (С) 10 км  слаб. снег  10/0 средняя 
[Ac As]
-21.9 -23.8 84 -22  1017.4  -1.4  758  334           
21 23.02.18 030 (СВ) 20000 м  {снег}  10/0 средняя 
[Ac As]
-26.7 -29.3 79 -27  1017.2  -0.4  757  340           
00 24.02.18 060 (СВ) 20000 м  {снег}  8/0 средняя, верхняя 
[Ac trans|Ci fib]
-32.1 -35.4 73 -38  1018.5  1.1  758  348           
03 24.02.18 020 (С) 20000 м  {снег}  8/0 средняя, верхняя 
[Ac trans|Ci fib]
-34.2 -37.7 70 -35  1018.6  0.1  758  351  -34.8    0.4  67  равномерный
сухой снег
100% 
06 24.02.18 020 (С) 20000 м  {снег}  10/0 средняя 
[Ac As]
-30.1 -33.3 74 -31  1018.7  0.2  758  345           
09 24.02.18 140 (ЮВ) 20000 м    10/0 средняя, верхняя 
[Ac As|Cs]
-29.7 -33 73 -30  1019.5  0.8  759  345           
12 24.02.18 тихо ()   20000 м    6/0 верхняя 
[Ci fib]
-33.6 -37.1 71 -34  1021.1  1.5  760  351           
15 24.02.18 тихо ()   20000 м    6/0 верхняя 
[Ci fib]
-33.6 -37.1 71 -34  1021.1  1.5  760  351           
18 24.02.18 тихо ()   20000 м    6/0 верхняя 
[Ci fib]
-33.6 -37.1 71 -34  1021.1  1.5  760  351           
21 24.02.18 тихо ()   20000 м    6/0 верхняя 
[Ci fib]
-33.6 -37.1 71 -34  1021.1  1.5  760  351           
00 25.02.18 тихо ()   20000 м    6/0 верхняя 
[Ci fib]
-33.6 -37.1 71 -34  1021.1  1.5  760  351           
03 25.02.18 тихо ()   20000 м    6/0 верхняя 
[Ci fib]
-33.6 -37.1 71 -34  1021.1  1.5  760  351           
Время (UTC), дата Ветер
(°,м/с) 
Видим.   Явления Облачность Т
(°С)
Тd
(°С)
f(%) Тe
(°С)
Pmin
(гПа)
dP
(гПа)
Po
(мм)
O2
(г/м3)
Тmin Tmax R s Состояние
почвы

Для получения пояснительной информации подведите курсор к названию столбца.

ПОГОДА Правая Хетта - архив

Всё, что Вы хотите узнать о погоде Правая Хетта - удобно и подробно!

Выберите нужную дату (начиная с 1 января 2015* года) и нажмите кнопку "Найти".
Будут отображены архивные сводки погоды по пункту Правая Хетта, начиная с указанной даты.


Отображать данные в формате CSV (для использования в таблицах Excel)


Внимание! Наш архив погоды предназначен исключительно для личного некоммерческого использования в познавательных целях. Если Вам необходимы официальные справки о состоянии погоды (для производственных, юридических, коммерческих и т.п. целей), обращайтесь в органы Росгидромета.

*Примечание: данная дата относится к архиву по метеостанциям СССР (Россия, СНГ, Балтия).
Архив по метеостанциям Зарубежной Европы и Азии (кроме Китая) хранится 10 дней, по другим регионам земного шара (Китай, Африка, Америка, Австралия, Океания) - 1 день.

Правая Хетта - район местоположения метеостанции


Название, широта, долгота, высота метеостанции:
Правая Хетта 65.9°ш. 74.5°д. 54 м над ур. моря [Российская Федерация]

Дополнительная информация

В oтличие oт бoльшинства пoгoдных сайтoв мы публикуем пoдрoбную метеoинфoрмацию в детальнoм прoфессиoнальнoм фoрмате.

Характеристики температуры и влажнoсти вoздуха измеряются на высoте 2 м в тени вдали oт зданий и деревьев.
Скoрoсть ветра измеряется на высoте 10 м (на урoвне рoста челoвека скoрoсть ветра ниже в 1.5-2 раза). Если метеoстанция нахoдится в гoрoде или в лесу, тo скoрoсть ветра занижена на 2-4 м/с пo сравнению с oткрытым местoм. Скoрoсть ветра над акватoриями крупных рек и oзёр, а также на вершинах хoлмoв на 2-5 м/с выше, чем в oбычных услoвиях.
Атмoсфернoе давление в разных тoчках местнoсти мoжет значительнo oтличаться oт давления на метеoстанции, в зависимoсти oт услoвий рельефа (при пoдъёме на 10 м давление пoнижается примернo на 1 мм рт.ст.).